Overview Statistics Trail Chart Weather Telemetry Raw packets
 

This is the latest recevied weather packets stored in our database for station/object LU4EGV-13. If no packets are shown the sender has not sent any weather packets the latest 10 day(s).

<< 7 8 9 10 11 12 13 >>
Time Temp. Humidity Pressure Rain* Wind** Luminosity Snow
1788556397 17.78° C 29% 1013.6 hPa 0 mm - - -
1788555789 17.78° C 29% 1013.6 hPa 0 mm - - -
1788555194 17.78° C 29% 1013.5 hPa 0 mm - - -
1788554576 17.78° C 29% 1013.4 hPa 0 mm - - -
1788553970 18.33° C 28% 1013.5 hPa 0 mm - - -
1788553365 17.78° C 28% 1013.4 hPa 0 mm - - -
1788552758 18.33° C 26% 1013.5 hPa 0 mm - - -
1788552153 18.89° C 27% 1013.8 hPa 0 mm - - -
1788551545 18.33° C 26% 1013.6 hPa 0 mm - - -
1788550941 18.33° C 25% 1013.5 hPa 0 mm - - -
1788550334 18.33° C 25% 1013.6 hPa 0 mm - - -
1788549728 18.33° C 25% 1013.5 hPa 0 mm - - -
1788549121 17.78° C 26% 1013.7 hPa 0 mm - - -
1788548514 18.33° C 25% 1013.5 hPa 0 mm - - -
1788547909 17.78° C 24% 1013.6 hPa 0 mm - - -
1788547303 17.78° C 25% 1013.6 hPa 0 mm - - -
1788546699 18.33° C 27% 1013.8 hPa 0 mm - - -
1788546090 17.78° C 25% 1013.8 hPa 0 mm - - -
1788545484 18.33° C 27% 1013.8 hPa 0 mm - - -
1788544880 17.78° C 28% 1013.7 hPa 0 mm - - -
1788544271 18.33° C 24% 1013.8 hPa 0 mm - - -
1788543666 18.33° C 25% 1013.9 hPa 0 mm - - -
1788543059 18.33° C 29% 1014 hPa 0 mm - - -
1788542454 17.22° C 28% 1014.2 hPa 0 mm - - -
1788541857 17.78° C 28% 1014.4 hPa 0 mm - - -

* Rain latest hour (hover to see other rain measurements)
** Current wind speed in m/s (hover to see current wind gust speed)